METEOR 2-17 DEB

Satellite information

Favourite Embed

Satellite Type and Status

DEBRISIN ORBIT

Key statistics

Satellite METEOR 2-17 DEB at a glance.

Uptime

13728

Days in orbit

Revolutions

≈ 14.0

Per day

Orbit

LEO

Low Earth Orbit

Inclination

82.5

Latest

Satellite identification and parameters

Extended collection of information and parameters for METEOR 2-17 DEB.

Object identification

Identified? True

Debris? True

Object name: METEOR 2-17 DEB

International designator: 1988-005AN

Object number (NORAD): 38285

Object ID (CCSDS): 38285

Country: COMMONWEALTH OF INDEPENDENT STATES (CIS)

Current information (Y/N): Y

RCS size: SMALL

Orbital parameters

Period: 103.008 minutes

Inclination: 82.5488 deg

SMA: 7279.03 km

Apoapsis: 914.134 km

Periapsis: 887.655 km

RAAN: 167.0789 deg

Eccentricy: 0.00181882

Argument of periapsis: 29.3202 deg

Mean anomaly: 330.8982 deg

Mean motion: 13.97952893 rev/day

Mean motion (dot): 0.00001764 rev/day2

B* drag term: 0.0012322404 1/REarth

Two-line elements (TLE)

Creation date: Aug. 27, 2025, 12:18 p.m.

Reference frame: TEME

Reference center: EARTH

Epoch: Aug. 27, 2025, 3:09 a.m. UTC

TLE line 0: 0 METEOR 2-17 DEB

TLE line 1: 1 38285U 88005AN 25239.13130934 .00001764 00000-0 12322-2 0 9992

TLE line 2: 2 38285 82.5488 167.0789 0018188 29.3202 330.8982 13.97952893169707

Live tracking on map

Real-time ground track for satellite METEOR 2-17 DEB.

In-orbit conjunctions

A list of the most updated potential collisions computed for object METEOR 2-17 DEB.

Target Orbit TCA Probability of collision Miss distance Type
COSMOS 1275 DEB LEO 2025-08-18 09:14:23 0.00019383 191.0 (m) DEBRIS
LANDSAT 2 SSO 2025-04-01 15:39:31 0.0002798596 53.0 (m) PAYLOAD

Associated space launch

Second generation soviet meteorological satellite

METEOR 2-17 DEB was lifted into orbit during the mission ‘Tsiklon-3 | Meteor-2 17’, on board a Tsiklon-3 space rocket.

The launch took place on Jan. 30, 1988, 10:59 a.m. from 32/1.

For more information about the launch, click the button.

Launch to space Tsiklon-3 | Meteor-2 17
Tsiklon-3 | Meteor-2 17

Agency: N/A

Status: Launch Successful

Launch date: Jan. 30, 1988, 10:59 a.m. UTC

Rocket: Tsiklon-3

Launch pad: 32/1

Location: Plesetsk Cosmodrome, Russian Federation

...

Latest news about this satellite

There are no fresh news available about this satellite. Check back as we update our databases every day.


Newsletter sign-up

Weekly statistics, charts and insights to help you stay on top of the space industry.